Location: D�derode
(51.8092°N, 10.1065°E)
Time: 04:49:17
(UTC+00:00)

Cosmos 1869 Rocket - Pass Details

Date: 25 April 2021
Orbit: 604 x 634 km, 82.5° (Epoch: 11 May)

Event Time Altitude Azimuth Distance (km) Brightness Sun altitude
Rises 22:23:48 0° 355° (N) 2,891 8.4 -23.7°
Reaches altitude 10° 22:26:13 10° 5° (N) 1,977 7.1 -23.8°
Maximum altitude 22:30:12 34° 71° (ENE) 1,019 4.7 -23.9°
Enters shadow 22:30:27 33° 78° (ENE) 1,025 4.6 -23.9°
